Regional Weather Roundup
Issued by NWS

Home | Current Version | Previous Version | Graphics & Text | Print | Product List | Glossary Off
Versions: 1 2 3 4 5 6 7 8 9 10 11 12 13 14 15 16 17 18 19 20 21 22 23 24 25 26 27 28 29 30 31 32 33 34 35 36 37 38 39 40 41 42 43 44 45 46 47 48 49 50

000
ASUS43 KDTX 020101
RWRMI
MICHIGAN HOURLY REGIONAL WEATHER ROUNDUP
NATIONAL WEATHER SERVICE DETROIT/PONTIAC MI
900 PM EDT WED OCT 01 2014

NOTE: "FAIR" INDICATES FEW OR NO CLOUDS BELOW 12,000 FEET WITH NO
SIGNIFICANT WEATHER AND/OR OBSTRUCTION TO VISIBILITY.

MIZ047>049-052>055-059>063-066>070-074>076-081>083-020200-
SOUTHEAST LOWER MICHIGAN

CITY           SKY/WX    TMP DP  RH WIND       PRES   REMARKS
ADRIAN         CLEAR     57  51  80 CALM      30.04R
ALMA           FOG       50  49  95 CALM      30.01S VSB 1/2
ANN ARBOR      CLEAR     58  50  75 SE5       30.02R
BAD AXE        CLEAR     57  57 100 CALM      30.04S FOG
CARO           CLEAR     57  56  97 E5        30.02S FOG
DETROIT CITY   CLEAR     63  55  75 SE3       30.03R
DETROIT        PTCLDY    60  53  77 SE7       30.03S
FLINT          CLEAR     59  52  77 CALM      30.02R
GROSSE ILE     CLEAR     61  55  82 CALM      30.01F
HILLSDALE      CLEAR     53  51  92 CALM      30.02S
HOWELL         CLEAR     57  52  84 S3        30.03R

CITY           SKY/WX    TMP DP  RH WIND       PRES   REMARKS
JACKSON        CLEAR     54  49  83 E5        30.02R
LAMBERTVILLE   CLEAR     54  52  94 CALM      30.03R FOG
LANSING        CLEAR     54  48  80 SE5       30.01R
LAPEER         FAIR      57  55  92 CALM      30.03S
MASON          CLEAR     53  49  88 CALM      30.02R
MONROE         CLEAR     54  52  94 CALM      30.01S FOG
MT. CLEMENS    PTCLDY    58  58 100 SE3       30.02R
PONTIAC        PTCLDY    59  52  77 CALM      30.02S
PORT HOPE        N/A     59  57  93 SE6       30.03S
PORT HURON     CLOUDY    61  57  88 E6        30.04R
TRI CITIES     CLEAR     57  52  83 CALM      30.03R
TROY           CLEAR     62  55  79 E3        30.04F
SAGINAW HB     CLEAR     55  52  88 CALM      30.02R
$$
MIZ043>046-050>051-056>058-064>065-071>073-077>080-020200-
SOUTHWEST LOWER MICHIGAN

CITY           SKY/WX    TMP DP  RH WIND       PRES   REMARKS
BATTLE CREEK   PTCLDY    59  49  69 SE6       30.01R
BENTON HARBOR  CLEAR     59  51  75 SE9       29.95S
BIG RAPIDS     PTCLDY    50  50 100 CALM      30.00R
COLDWATER      CLEAR     56  50  79 CALM      30.01R
FREMONT        FAIR      55  50  85 E5        29.98S
GRAND RAPIDS   MOCLDY    56  52  86 E3        30.00R
IONIA          FAIR      57  50  77 SE6       30.00R
LUDINGTON      PTCLDY    55  52  92 CALM      29.97S
MARSHALL       CLEAR     53  46  77 CALM      30.01R
MOUNT PLEASANT   N/A     49  48  95 CALM      30.01R FOG
MUSKEGON       MOCLDY    57  50  77 E7        29.97S
SOUTH HAVEN    CLEAR     60  52  76 SE6       29.97S
$$
MIZ016>042-020200-
NORTHERN LOWER MICHIGAN

CITY           SKY/WX    TMP DP  RH WIND       PRES   REMARKS
ALPENA         CLOUDY    58  57  97 SE10      30.03R FOG
BEAVER ISLAND  PTCLDY    56  55  96 SE3       29.98S
BELLAIRE       CLEAR     53  51  92 CALM      30.00R
CADILLAC       PTCLDY    52  49  90 SE3       30.00R
CHARLEVOIX     PTCLDY    58  55  89 SE3       30.02R
FRANKFORT      PTCLDY    53  49  88 CALM      29.97S
GAYLORD        CLEAR     55  51  86 S6        30.01R
GRAYLING         N/A     52  52 100 CALM      30.02R FOG
HARBOR SPRINGS CLEAR     57  55  92 E3        30.00R
HOUGHTON LAKE  CLEAR     52  50  93 SE6       30.01R
OSCODA         MOCLDY    59  57  93 SE8       30.02S FOG
PELLSTON       FOG       51  51 100 CALM      30.00R VSB 1/2
ROGERS CITY    CLOUDY    58  58  99 SE9       30.03R FOG
TRAVERSE CITY  PTCLDY    54  51  90 CALM      29.98R
$$
MIZ007>008-015-020200-
EASTERN UPPER MICHIGAN

CITY           SKY/WX    TMP DP  RH WIND       PRES   REMARKS
MACKINAC ISLAN CLOUDY    56  56 100 SE8G16    30.00R FOG
NEWBERRY       CLOUDY    54  53  96 SE10      29.97S
S. S. MARIE    CLOUDY    56  55  97 SE8       30.01R FOG
$$
MIZ004>006-011>014-085-020200-
CENTRAL UPPER MICHIGAN

CITY           SKY/WX    TMP DP  RH WIND       PRES   REMARKS
MANISTIQUE     CLOUDY    55  53  94 S3        29.95F
SAWYER-GWINN   MOCLDY    54  48  82 S16       29.91S
$$
MIZ001>003-009>011-084-020200-
WESTERN UPPER MICHIGAN

CITY           SKY/WX    TMP DP  RH WIND       PRES   REMARKS
IRON MOUNTAIN  CLOUDY    54  49  83 SE7       29.91R
HOUGHTON       CLOUDY    54  50  86 S10       29.84R
COPPER HARBOR    N/A     55  50  83 SW12G18   29.84R
$$

ABBREVIATIONS USED IN REMARKS
   TC - TEMPERATURE IN CELSIUS
  WCI - WIND CHILL INDEX
   HX - HEAT INDEX
  VSB - VISIBILITY



USA.gov is the U.S. government's official web portal to all federal, state and local government web resources and services.